Caldwell, NJ

3:19 AM EDT on September 27, 2016 (GMT -0400)
Essex County

Weather History for KCDW - April, 2013

Change the Weather History Date:

Sunday, April 21, 2013

  Actual Average Record
Temperature  
Mean Temperature 44 °F -  
Max Temperature 54 °F 61 °F 89 °F (1976)
Min Temperature 35 °F 40 °F 27 °F (1961)
Degree Days  
Heating Degree Days 21    
Moisture  
Dew Point 20 °F    
Average Humidity 39    
Maximum Humidity 62    
Minimum Humidity 24    
Precipitation  
Precipitation 0.00 in - - ()
Sea Level Pressure  
Sea Level Pressure 30.55 in    
Wind  
Wind Speed 6 mph (NNE)    
Max Wind Speed 10 mph    
Max Gust Speed 20 mph    
Visibility 10 miles    
Events      
Averages and records for this station are not official NWS values.
T = Trace of Precipitation, MM = Missing Value Source: NWS Daily Summary

Daily Weather History Graph

Daily Weather History Graph

Search for Another Location

Airport or City:

Trip Planner

Search our weather history database for the weather conditions in past years. The results will help you decide how hot, cold, wet, or windy it might be!

Date:

Astronomy

Apr. 21, 2013 Rise Set
Actual Time 6:08 AM EDT 7:43 PM EDT
Civil Twilight 5:39 AM EDT 8:12 PM EDT
Nautical Twilight 5:05 AM EDT 8:47 PM EDT
Astronomical Twilight 4:28 AM EDT 9:24 PM EDT
Moon 3:24 PM EDT (4/21) 3:31 AM EDT (4/21)
Length of Visible Light 14h 32m
Length of Day
13h 34m
Waxing Gibbous, 79% of the Moon is Illuminated
Apr 21
Waxing Gibbous
Apr 25
Full
May 2
Last Quarter
May 9
New
May 18
First Quarter

Hourly Weather History & Observations

Time (EDT) Temp. Windchill Dew Point Humidity Pressure Visibility Wind Dir Wind Speed Gust Speed Precip Events Conditions
12:53 AM 41.0 °F 35.8 °F 19.0 °F 41% 30.37 in 10.0 mi NNW 8.1 mph 19.6 mph N/A   Clear
1:53 AM 39.0 °F 35.7 °F 16.0 °F 39% 30.40 in 10.0 mi Variable 4.6 mph - N/A   Clear
2:53 AM 37.9 °F 30.9 °F 17.1 °F 43% 30.41 in 10.0 mi NNW 10.4 mph 19.6 mph N/A   Clear
3:53 AM 37.0 °F 31.6 °F 18.0 °F 46% 30.43 in 10.0 mi Variable 6.9 mph - N/A   Clear
4:53 AM 36.0 °F 32.1 °F 19.0 °F 50% 30.46 in 10.0 mi Variable 4.6 mph - N/A   Clear
5:53 AM 35.1 °F 32.2 °F 19.9 °F 54% 30.49 in 10.0 mi NNW 3.5 mph - N/A   Clear
6:53 AM 36.0 °F 30.3 °F 19.9 °F 52% 30.53 in 10.0 mi NNW 6.9 mph - N/A   Clear
7:53 AM 37.9 °F 31.5 °F 19.0 °F 47% 30.56 in 10.0 mi NNW 9.2 mph - N/A   Clear
8:53 AM 39.0 °F 34.0 °F 19.0 °F 45% 30.58 in 10.0 mi Variable 6.9 mph - N/A   Clear
9:53 AM 41.0 °F 38.0 °F 19.9 °F 43% 30.59 in 10.0 mi Variable 4.6 mph - N/A   Clear
10:53 AM 44.1 °F 38.6 °F 19.0 °F 37% 30.60 in 10.0 mi North 10.4 mph - N/A   Clear
11:53 AM 46.9 °F - 19.9 °F 34% 30.60 in 10.0 mi Variable 6.9 mph - N/A   Clear
12:53 PM 48.9 °F - 19.9 °F 32% 30.59 in 10.0 mi Variable 5.8 mph - N/A   Clear
1:53 PM 48.9 °F - 18.0 °F 29% 30.59 in 10.0 mi Variable 3.5 mph - N/A   Clear
2:53 PM 53.1 °F - 19.0 °F 26% 30.57 in 10.0 mi NNE 5.8 mph - N/A   Clear
3:53 PM 53.1 °F - 19.0 °F 26% 30.56 in 10.0 mi NNE 9.2 mph 18.4 mph N/A   Clear
4:53 PM 52.0 °F - 21.0 °F 30% 30.56 in 10.0 mi East 5.8 mph - N/A   Clear
5:53 PM 52.0 °F - 16.0 °F 24% 30.57 in 10.0 mi East 8.1 mph - N/A   Clear
6:53 PM 51.1 °F - 16.0 °F 25% 30.58 in 10.0 mi ENE 4.6 mph - N/A   Clear
7:53 PM 48.9 °F - 17.1 °F 28% 30.60 in 10.0 mi ENE 5.8 mph - N/A   Clear
8:53 PM 46.9 °F - 18.0 °F 32% 30.62 in 10.0 mi Calm Calm - N/A   Clear
9:53 PM 45.0 °F - 26.1 °F 48% 30.63 in 10.0 mi Calm Calm - N/A   Clear
10:53 PM 44.1 °F - 27.0 °F 51% 30.63 in 10.0 mi Calm Calm - N/A   Clear
11:53 PM 42.1 °F - 30.0 °F 62% 30.64 in 10.0 mi Calm Calm - N/A   Clear